Location: Unspecified
(0.0000°N, 0.0000°E)
Time: 16:47:58
(UTC+00:00)

USA 144 - Visible Passes

Search period start: 28 May 2023 00:00
Search period end: 07 June 2023 00:00
Orbit: 2685 x 3135 km, 63.4° (Epoch: 30 November)

Date Brightness Start Highest point End Pass type
(mag) Time Alt. Az. Time Alt. Az. Time Alt. Az.
28 May 5.9 19:41:23 10° NNE 19:49:11 14° ENE 19:51:10 14° ENE visible
28 May 5.1 22:07:50 10° NNW 22:19:42 56° NNW 22:19:42 56° NNW visible
29 May 5.4 20:22:40 10° N 20:36:40 33° ENE 20:36:40 33° ENE visible
29 May 5.5 22:55:44 10° NW 23:05:13 38° WNW 23:05:13 38° WNW visible
30 May 4.9 21:07:41 10° N 21:22:12 58° NE 21:22:12 58° NE visible
30 May 6.1 23:45:56 10° WNW 23:50:46 19° WNW 23:50:46 19° WNW visible
31 May 5.8 19:25:51 10° NNE 19:35:54 18° ENE 19:39:13 17° ENE visible
31 May 4.9 21:54:21 10° NNW 22:07:46 65° NW 22:07:46 65° NW visible
01 Jun 5.2 20:08:30 10° N 20:23:34 38° ENE 20:24:49 38° ENE visible
01 Jun 5.5 22:42:40 10° NW 22:53:24 39° WNW 22:53:24 39° WNW visible
02 Jun 4.7 20:53:56 10° NNW 21:10:28 69° ENE 21:10:28 69° ENE visible
02 Jun 6.1 23:33:39 10° WNW 23:39:02 19° W 23:39:02 19° W visible
03 Jun 5.6 19:10:53 10° NNE 19:22:34 22° ENE 19:27:35 19° E visible
03 Jun 4.8 21:40:56 10° NNW 21:56:09 70° W 21:56:09 70° W visible
04 Jun 5.0 19:54:27 10° N 20:10:05 44° ENE 20:13:18 41° E visible
04 Jun 5.5 22:29:42 10° NW 22:41:53 38° W 22:41:53 38° W visible
05 Jun 4.6 20:40:15 10° NNW 20:57:11 77° ENE 20:59:03 72° ESE visible
05 Jun 6.1 23:21:43 10° WNW 23:27:38 17° W 23:27:38 17° W visible
06 Jun 5.5 18:56:15 10° NNE 19:09:11 26° ENE 19:16:17 19° E visible
06 Jun 4.8 21:27:38 10° NNW 21:44:05 64° WSW 21:44:52 64° WSW visible
